Wind_Speed
38 45 47 46 41 40 42 44 48 47 47 47 46 49 52 51 47 41 36 34 36 36 37 37 38 39 41 42 40 38 37 38 34 28 29 33 35 35 35 35 34 33 31
44 46 44 41 39 40 42 46 47 45 45 45 46 50 48 45 40 38 37 35 36 36 35 37 40 42 42 41 39 38 38 38 36 32 30 31 34 37 36 35 36 36 35
40 44 41 38 39 43 44 48 46 44 44 45 46 48 46 41 41 38 37 38 37 37 39 40 42 43 42 41 40 39 36 35 36 35 33 32 31 33 36 38 37 38 37
38 46 41 38 41 44 47 48 46 44 45 47 46 45 45 44 43 39 41 41 41 42 43 43 43 44 46 45 41 37 35 35 34 34 33 31 32 32 31 33 38 38 39
42 44 38 40 43 45 48 48 46 44 47 48 47 45 46 44 44 43 43 44 44 45 44 45 46 47 49 45 42 38 37 35 33 33 31 29 30 31 29 30 30 34 34
41 36 37 41 44 46 48 46 44 46 49 50 48 45 46 44 44 45 47 47 48 46 46 46 49 49 46 43 42 41 37 34 32 30 29 26 27 24 25 24 25 27 31
33 34 38 43 46 47 47 45 44 48 49 50 47 44 45 46 47 48 48 48 48 49 48 48 48 46 42 39 39 39 38 34 30 27 26 25 25 23 24 21 21 21 22
34 36 39 44 47 48 47 45 46 47 49 47 46 45 48 49 48 46 47 48 48 49 50 50 45 40 39 41 40 37 34 31 31 29 27 26 24 23 22 22 19 19 19
36 37 40 44 48 49 46 45 46 48 48 45 46 49 50 49 47 46 46 46 49 50 48 45 41 40 42 37 33 32 32 32 31 30 29 28 28 26 24 21 20 20 19
38 39 41 46 48 48 45 44 46 48 45 45 49 47 46 43 43 44 46 48 48 48 45 41 42 42 36 33 33 33 34 32 30 29 26 25 24 23 24 24 23 19 19
38 40 43 47 48 46 44 45 47 45 44 47 46 44 44 45 46 47 48 49 46 42 40 42 41 35 35 35 33 31 28 29 32 33 28 26 25 25 24 24 22 18 17
38 41 45 47 47 45 43 45 44 43 46 45 42 44 46 47 48 49 50 45 41 41 42 39 32 33 34 33 31 34 36 34 25 21 21 20 20 19 19 16 11 13 15
36 42 45 45 45 42 43 44 44 44 44 40 42 44 46 49 51 50 46 45 46 43 36 32 32 34 34 34 36 35 30 22 22 19 18 21 20 17 13 13 12 13 15
36 42 44 43 41 40 43 43 41 41 39 41 43 42 48 50 47 45 48 48 43 36 36 36 37 36 39 42 41 28 26 26 23 21 20 20 18 16 11 9 10 14 15
38 41 41 38 38 40 42 39 38 38 39 41 43 46 48 44 44 47 45 38 36 36 39 39 41 45 48 39 29 28 29 26 22 19 18 17 15 13 12 13 12 12 17
38 39 35 35 38 39 37 35 36 37 40 39 45 46 47 46 47 42 38 39 39 39 40 44 49 42 33 31 31 30 29 26 22 20 19 14 12 11 12 12 15 16 21
35 32 31 35 37 34 32 33 34 39 39 40 45 48 47 49 43 39 41 42 42 46 47 38 35 37 34 30 27 27 26 23 21 19 16 13 13 12 12 12 12 14 19
28 28 31 33 32 31 31 32 35 37 40 43 46 49 47 48 43 45 47 45 50 41 31 31 38 36 33 30 25 23 18 15 19 18 14 17 13 14 13 11 12 13 18
25 27 30 31 30 30 30 32 35 37 39 42 43 48 47 46 43 47 49 49 41 41 30 39 36 33 32 31 29 19 14 16 17 14 13 12 10 11 10 10 11 12 19
24 27 29 29 27 28 30 33 35 38 40 42 44 46 44 41 40 45 48 48 44 34 42 34 29 28 29 25 23 12 20 19 17 13 10 8 8 9 8 12 12 13 15
24 27 27 26 26 27 31 34 37 39 42 42 42 45 45 40 42 44 44 47 43 44 48 36 33 34 33 29 23 21 18 18 11 5 5 7 9 7 10 15 14 15 17
23 26 24 24 24 28 31 34 36 38 39 37 41 40 42 38 42 39 43 43 46 46 46 40 38 37 33 30 22 21 14 8 5 3 3 2 2 8 13 15 13 13 20
22 21 19 20 24 28 32 34 37 37 36 39 40 37 36 36 36 36 42 44 46 45 46 42 39 38 33 27 20 17 13 9 7 6 6 9 11 13 12 11 13 17 25
17 15 16 20 25 29 35 35 36 38 35 38 37 37 32 35 31 36 41 43 41 42 44 41 41 39 32 28 23 20 17 15 16 18 19 18 15 12 10 12 13 21 27
11 12 15 20 25 31 33 35 38 38 33 35 33 33 29 29 29 34 37 39 38 38 40 39 42 38 33 30 28 28 26 25 25 25 22 17 16 16 17 16 19 22 26
8 10 14 20 25 31 35 35 35 38 33 33 32 27 29 24 27 32 34 39 41 40 37 37 40 40 36 31 31 30 29 28 26 25 24 23 22 20 20 21 23 26 31
Wind_Direction
327 328 330 328 325 324 323 322 321 321 319 321 323 325 326 324 327 330 332 324 319 317 320 322 322 322 320 318 319 318 315 313 313 308 294 280 275 273 272 273 273 271 270
325 323 327 324 322 319 321 321 323 322 323 324 324 327 329 333 337 337 332 328 325 323 324 325 327 326 323 320 318 317 316 315 313 310 300 289 279 274 269 271 273 271 271
323 327 326 320 317 319 321 325 325 323 324 324 325 326 330 333 332 334 334 332 330 328 326 327 327 327 324 321 319 316 317 314 310 306 301 295 288 280 274 268 269 271 271
322 328 320 316 318 321 325 327 324 324 324 323 323 323 323 323 325 327 329 330 331 330 328 327 326 325 325 322 317 313 310 311 311 308 302 296 291 288 284 278 272 269 271
319 319 315 316 321 323 327 327 325 324 324 323 322 319 321 322 318 320 324 325 326 325 325 326 324 322 319 318 314 310 311 309 307 307 302 298 294 291 287 282 276 274 269
316 314 314 318 323 325 328 327 322 322 324 322 320 319 318 319 318 320 321 323 322 324 325 321 320 318 317 315 311 310 309 307 303 302 300 296 293 298 295 286 279 274 273
314 314 317 321 325 326 328 325 321 324 323 322 323 323 320 319 319 321 322 322 323 322 319 320 319 316 316 315 312 311 308 305 302 297 296 294 293 296 296 297 286 283 283
314 315 318 320 325 328 327 323 324 324 322 323 325 324 321 320 320 321 322 321 321 320 319 319 319 320 318 313 309 307 306 306 302 299 293 293 295 291 289 291 294 289 283
310 312 316 322 326 328 326 324 324 323 323 325 325 324 323 322 321 322 320 320 319 319 320 319 319 316 315 315 314 311 308 306 304 301 298 295 292 291 285 282 285 288 285
308 311 318 324 326 326 324 324 324 323 325 324 325 328 328 328 326 323 320 319 321 320 320 320 318 318 319 318 315 311 307 306 306 307 304 301 296 291 284 279 279 281 271
307 313 319 323 326 325 323 324 324 325 326 326 327 328 328 327 325 323 323 323 324 323 321 319 320 319 318 317 317 319 316 311 311 311 305 303 301 294 289 283 271 268 252
308 314 319 323 324 322 323 324 324 327 327 329 329 328 328 326 325 325 325 328 327 322 320 320 318 318 318 318 318 317 310 310 320 320 317 315 315 312 308 299 261 244 236
310 316 319 323 322 322 324 324 327 328 331 330 328 330 329 328 329 330 331 327 325 327 325 321 320 320 321 319 319 321 315 315 315 318 315 314 309 305 303 287 251 236 229
314 317 320 322 322 325 325 324 328 330 330 329 330 328 331 332 332 330 326 327 331 331 325 325 325 324 320 319 320 315 312 310 307 309 309 313 315 299 285 272 246 233 223
316 319 320 322 325 325 325 329 332 331 332 333 334 332 332 334 331 328 329 334 330 328 327 326 320 315 319 323 318 310 307 302 298 302 297 310 305 290 276 266 254 232 211
318 318 322 324 326 326 328 333 334 335 335 336 337 337 337 338 334 335 337 335 332 330 324 320 324 331 326 317 315 313 307 303 294 293 293 294 291 274 287 282 258 243 210
317 321 325 327 326 326 333 335 337 339 337 335 339 342 342 339 339 339 339 336 332 329 334 341 332 328 327 324 318 311 304 296 297 300 292 276 278 281 280 281 256 230 210
318 324 326 327 326 331 333 337 340 341 340 338 340 344 343 341 341 342 342 339 335 344 345 344 337 339 336 326 324 320 326 289 292 296 287 291 268 278 284 261 227 215 202
321 326 328 326 328 333 335 339 341 340 339 341 341 345 343 343 341 343 339 341 349 345 345 343 336 334 333 331 325 315 315 320 310 290 283 270 269 273 280 229 209 202 201
322 328 326 324 331 333 338 342 342 339 339 341 342 344 345 344 341 343 341 354 352 355 1 349 348 352 351 342 341 322 318 320 313 299 259 263 280 285 251 205 190 190 182
326 328 322 326 333 337 342 343 340 338 338 338 341 345 346 347 347 345 357 360 358 358 357 356 356 -0 357 352 348 341 327 321 321 297 258 262 275 253 197 187 180 179 177
330 324 325 332 337 344 346 345 344 343 345 346 345 347 347 348 348 354 3 3 351 350 358 2 359 2 359 359 359 358 357 13 39 11 322 306 212 172 171 172 178 181 176
326 330 334 337 346 349 350 349 348 345 347 349 349 349 349 352 352 2 1 7 2 359 2 4 4 7 6 7 11 11 15 16 17 27 65 107 123 136 148 156 155 160 160
333 334 342 349 352 351 350 348 349 347 346 345 349 350 354 354 360 6 6 1 360 10 5 9 12 14 14 19 24 30 38 56 74 84 91 97 105 111 120 133 143 160 159
336 337 351 354 354 353 356 354 353 352 348 347 351 355 358 356 7 13 6 7 13 20 11 19 19 24 30 37 52 60 64 73 82 87 89 90 96 108 115 123 132 136 150
334 341 360 358 356 360 357 356 356 357 352 353 355 2 1 3 14 17 13 20 20 31 25 30 30 33 39 52 58 60 68 76 85 85 78 74 85 95 103 112 121 131 142
Height
5829 5822 5815 5808 5803 5796 5792 5788 5782 5775 5767 5758 5749 5742 5733 5724 5715 5706 5698 5693 5687 5681 5675 5670 5663 5657 5650 5644 5637 5633 5628 5623 5620 5618 5615 5612 5611 5609 5610 5610 5611 5612 5613
5821 5815 5807 5801 5796 5793 5788 5782 5774 5766 5757 5749 5742 5733 5726 5717 5709 5700 5693 5687 5681 5675 5669 5662 5655 5649 5642 5636 5630 5625 5620 5614 5611 5609 5605 5603 5600 5598 5599 5599 5600 5601 5602
5815 5808 5801 5797 5793 5788 5781 5773 5765 5756 5749 5742 5734 5726 5719 5711 5704 5696 5688 5681 5675 5668 5661 5655 5648 5641 5634 5628 5622 5616 5611 5607 5603 5599 5597 5593 5591 5588 5587 5588 5588 5589 5591
5807 5802 5797 5792 5787 5780 5772 5764 5756 5748 5741 5734 5726 5719 5712 5705 5697 5690 5682 5675 5667 5660 5653 5646 5639 5633 5626 5619 5613 5608 5604 5599 5595 5590 5586 5583 5580 5577 5577 5577 5575 5578 5578
5801 5795 5791 5786 5780 5772 5764 5756 5748 5740 5734 5726 5718 5711 5705 5697 5689 5682 5675 5667 5659 5652 5644 5637 5630 5623 5616 5608 5603 5599 5595 5591 5586 5583 5578 5575 5570 5568 5567 5566 5566 5564 5567
5793 5789 5785 5779 5771 5763 5756 5748 5740 5733 5725 5717 5709 5703 5696 5688 5680 5673 5665 5658 5649 5642 5635 5627 5620 5613 5605 5598 5593 5587 5584 5581 5577 5574 5570 5568 5563 5561 5558 5557 5556 5555 5556
5787 5783 5777 5771 5764 5756 5748 5740 5733 5726 5718 5709 5701 5694 5687 5679 5671 5664 5656 5648 5640 5633 5625 5617 5609 5602 5596 5590 5583 5577 5574 5570 5568 5566 5563 5559 5556 5554 5551 5550 5549 5548 5548
5780 5775 5770 5764 5757 5748 5740 5733 5726 5718 5710 5702 5693 5686 5677 5670 5662 5655 5647 5639 5631 5622 5614 5606 5599 5593 5587 5581 5575 5569 5564 5562 5559 5556 5554 5551 5548 5546 5544 5542 5542 5541 5541
5774 5769 5763 5757 5749 5741 5734 5726 5719 5710 5702 5695 5686 5677 5669 5660 5653 5646 5638 5630 5621 5612 5604 5596 5590 5584 5578 5572 5567 5562 5557 5553 5550 5547 5544 5542 5539 5537 5535 5535 5534 5534 5534
5768 5763 5756 5749 5742 5734 5726 5718 5710 5703 5695 5687 5678 5670 5661 5653 5645 5638 5630 5621 5612 5603 5594 5587 5581 5575 5569 5564 5560 5555 5550 5545 5540 5537 5534 5532 5530 5528 5526 5525 5526 5527 5527
5761 5756 5749 5742 5735 5727 5719 5711 5703 5695 5688 5680 5671 5663 5656 5647 5638 5629 5620 5612 5603 5595 5587 5580 5573 5567 5562 5557 5552 5547 5542 5537 5533 5529 5525 5522 5520 5518 5517 5515 5517 5519 5521
5754 5749 5743 5735 5728 5720 5712 5704 5697 5689 5681 5673 5666 5657 5648 5639 5629 5620 5611 5602 5594 5588 5580 5573 5567 5561 5556 5549 5544 5539 5533 5528 5525 5522 5519 5516 5514 5512 5511 5509 5510 5512 5515
5747 5743 5736 5728 5721 5713 5706 5698 5691 5683 5676 5668 5660 5652 5642 5631 5621 5611 5602 5593 5586 5578 5571 5565 5560 5554 5548 5542 5537 5530 5524 5520 5518 5516 5514 5511 5509 5507 5505 5505 5506 5508 5511
5740 5736 5729 5722 5714 5708 5700 5693 5686 5679 5671 5663 5655 5646 5636 5625 5615 5606 5595 5586 5578 5570 5563 5557 5551 5545 5538 5532 5526 5520 5517 5513 5511 5509 5507 5505 5503 5502 5502 5501 5502 5504 5507
5734 5728 5723 5716 5709 5702 5695 5688 5682 5675 5667 5658 5649 5640 5631 5621 5611 5600 5589 5582 5574 5566 5558 5550 5543 5535 5528 5522 5516 5511 5508 5505 5503 5501 5500 5499 5497 5496 5497 5498 5499 5500 5503
5728 5723 5717 5710 5704 5697 5691 5685 5678 5670 5661 5653 5644 5635 5624 5613 5603 5593 5583 5575 5568 5560 5551 5542 5533 5525 5518 5512 5507 5503 5499 5496 5494 5493 5492 5491 5491 5491 5492 5492 5492 5494 5498
5723 5718 5712 5705 5699 5693 5688 5681 5674 5665 5656 5649 5640 5629 5618 5608 5597 5588 5580 5570 5560 5551 5542 5534 5525 5517 5509 5502 5497 5493 5489 5486 5485 5485 5483 5485 5485 5485 5486 5486 5487 5488 5492
5717 5712 5707 5701 5696 5691 5684 5677 5670 5662 5654 5644 5634 5625 5614 5602 5592 5583 5573 5564 5553 5543 5535 5526 5518 5510 5502 5496 5490 5485 5481 5479 5478 5477 5477 5477 5478 5479 5479 5480 5482 5485 5488
5711 5708 5702 5697 5693 5687 5680 5673 5665 5658 5650 5642 5633 5622 5610 5599 5589 5580 5569 5559 5549 5539 5530 5522 5512 5504 5497 5489 5483 5480 5476 5474 5471 5470 5470 5471 5472 5473 5474 5475 5478 5481 5484
5708 5703 5698 5694 5689 5683 5676 5669 5662 5655 5646 5638 5629 5620 5610 5600 5591 5580 5567 5557 5545 5535 5527 5518 5509 5500 5492 5485 5478 5473 5471 5468 5466 5464 5465 5466 5467 5468 5469 5471 5475 5478 5482
5703 5700 5696 5692 5686 5679 5672 5666 5659 5651 5643 5634 5625 5615 5605 5597 5588 5577 5568 5556 5546 5535 5525 5515 5506 5497 5488 5480 5474 5469 5465 5462 5460 5460 5461 5462 5463 5463 5465 5469 5473 5477 5481
5700 5696 5693 5689 5683 5676 5670 5664 5656 5648 5640 5631 5623 5614 5605 5596 5588 5578 5569 5558 5546 5535 5525 5514 5504 5495 5486 5478 5471 5466 5461 5459 5459 5459 5458 5459 5459 5461 5464 5468 5472 5476 5481
5696 5693 5690 5686 5680 5674 5668 5662 5654 5645 5638 5630 5621 5614 5606 5598 5589 5581 5570 5560 5548 5536 5526 5514 5504 5495 5486 5478 5472 5467 5464 5461 5459 5458 5458 5458 5460 5463 5466 5469 5472 5476 5481
5692 5691 5688 5683 5678 5672 5667 5660 5652 5643 5636 5629 5621 5614 5606 5599 5592 5583 5574 5565 5553 5541 5529 5518 5508 5498 5488 5481 5474 5470 5465 5463 5462 5463 5464 5465 5466 5467 5468 5470 5473 5477 5484
5690 5690 5686 5681 5676 5672 5666 5659 5651 5643 5635 5629 5621 5615 5608 5601 5595 5587 5579 5569 5558 5547 5535 5525 5514 5504 5495 5487 5482 5478 5475 5473 5472 5472 5472 5472 5472 5472 5473 5474 5477 5482 5487
5690 5689 5683 5679 5676 5671 5665 5659 5651 5644 5636 5629 5622 5616 5610 5604 5599 5592 5584 5575 5564 5554 5543 5533 5523 5514 5505 5499 5494 5490 5487 5485 5483 5483 5482 5480 5479 5479 5480 5481 5484 5488 5493